星链-32184 (STARLINK-32184)

导读 | 星芒AI

STARLINK-32184 是 SpaceX Starlink 卫星互联网项目中的一颗低轨卫星,属于其第二代卫星群。该卫星于2023年发射,旨在为全球用户提供高速、低延迟的互联网服务。它运行在约550公里高的近地轨道,采用先进通信技术,支持宽带数据传输。Starlink 项目致力于改善偏远地区的网络接入,推动全球数字连接。

基本信息
目录编号:
60942
目录名称:
STARLINK-32184
国际标识:
2024-155U
轨道中心:
EARTH
卫星名称:
星链-32184
卫星全名:
星链-32184 (STARLINK-32184)
卫星状态:
在轨 (已飞行476 天)
发射日期:
2024-08-31 UTC
国别 :
美国 (US)
星等 :
--
轨道信息
数据来源 国际轨道数据 AOE轨道数据
星历时间 2025-12-20T01:01:27+0800
14小时前
查看轨道信息
2025-12-16T23:00:00+0800
3天前
查看轨道信息
半长轴 6853.379km 6853.333km
偏心率 0.0001026 0.0002198
轨道倾角 53.160° 53.160°
近地点辐角 75.588° 96.402°
升交点赤经 141.304° 155.632°
平近点角 284.523° 183.589°
近地点 474.538km 473.691km
远地点 475.946km 476.705km
周期 94.106分钟 94.105分钟
每日圈数 15.301912 15.302067
详细信息
固有亮度:
5
最大亮度:
2.5
卫星平台:
Starlink V1.0
覆盖范围:
全球
运营商:
太空探索技术公司
运营商所在国:
美国
制造商(研发单位):
太空探索技术公司
制造商所在国:
美国
使用方式:
暂无
卫星简介
Starlink 计划是 SpaceX 推出的全球卫星互联网项目,通过发射低轨道卫星,为全球尤其是偏远地区提供高速、低延迟的互联网服务。自 2019 年起,Starlink 已部署数千颗卫星,旨在缩小全球数字鸿沟,推动互联网普及。该项目还为军事、航空等行业提供通信支持,带来广泛经济效益。
2D轨道图
3D轨道图
轨道高度分析图
轨道倾角分析图
轨道综合分析图
查看轨道综合分析图